AD8HP Weather Reports


time (UTC)temp
C
wind
direction
speed
KPH
gust
KPH
rain 1hr
cm
rain 24hr
cm
rain mn
cm
humidity
%
barometer
mb
20260906113518 13 326 0.0 6.4 0.00 0.15 0.03 92 1019.6
20260906113035 13 349 1.6 8.0 0.00 0.15 0.03 92 1019.5
20260906112520 13 21 3.2 11.3 0.00 0.15 0.03 92 1019.3
20260906112019 13 25 4.8 11.3 0.00 0.15 0.03 92 1019.2
20260906111532 13 31 4.8 8.0 0.00 0.15 0.03 92 1019.1
20260906111009 13 26 4.8 8.0 0.03 0.15 0.03 92 1019.0
20260906110513 13 34 4.8 8.0 0.03 0.15 0.03 92 1018.9
20260906110029 13 37 3.2 6.4 0.03 0.15 0.03 92 1019.0
20260906105515 13 30 3.2 6.4 0.03 0.15 0.03 92 1019.0
20260906105016 13 38 3.2 8.0 0.03 0.15 0.03 92 1019.1
20260906104535 13 25 3.2 9.7 0.03 0.15 0.03 92 1019.1
20260906104016 13 21 3.2 9.7 0.03 0.15 0.03 92 1019.1
20260906103516 13 23 4.8 8.0 0.03 0.15 0.03 92 1019.1
20260906103035 13 10 4.8 8.0 0.03 0.15 0.03 92 1019.0
20260906102519 13 31 3.2 6.4 0.03 0.15 0.03 92 1019.0
20260906102019 13 42 3.2 6.4 0.03 0.15 0.03 92 1019.0
20260906101537 13 22 3.2 6.4 0.03 0.15 0.03 92 1018.9
20260906101018 13 23 3.2 8.0 0.00 0.13 0.00 93 1018.9
20260906100521 13 33 4.8 8.0 0.00 0.13 0.00 93 1018.8
20260906100027 13 34 3.2 6.4 0.00 0.13 0.00 92 1018.8
20260906095512 13 44 4.8 8.0 0.00 0.13 0.00 92 1018.6
20260906095012 13 40 4.8 14.5 0.00 0.13 0.00 92 1018.6
20260906094535 13 32 6.4 14.5 0.00 0.13 0.00 92 1018.7
20260906094004 13 35 4.8 8.0 0.00 0.13 0.00 92 1018.8
20260906093504 13 35 4.8 6.4 0.00 0.13 0.00 92 1018.9
20260906093018 13 26 4.8 8.0 0.00 0.13 0.00 92 1018.8
20260906092504 13 30 4.8 8.0 0.00 0.13 0.00 92 1018.8
20260906092011 13 40 3.2 8.0 0.00 0.13 0.00 92 1018.8
20260906091516 13 33 4.8 8.0 0.00 0.13 0.00 92 1018.7
20260906091007 14 38 4.8 8.0 0.00 0.13 0.00 92 1018.7
20260906090507 14 38 4.8 8.0 0.00 0.13 0.00 92 1018.8
20260906090025 14 34 4.8 8.0 0.00 0.13 0.00 92 1018.9
20260906085513 14 31 4.8 6.4 0.00 0.13 0.00 91 1019.1
20260906085010 14 38 3.2 6.4 0.00 0.13 0.00 92 1019.0
20260906084542 14 17 1.6 6.4 0.00 0.13 0.00 92 1019.0
20260906084014 14 31 1.6 6.4 0.00 0.13 0.00 92 1018.9
20260906083514 14 20 3.2 9.7 0.00 0.13 0.00 92 1018.8
20260906083014 14 27 4.8 9.7 0.00 0.13 0.00 92 1018.7
20260906082505 15 34 4.8 12.9 0.00 0.15 0.00 92 1018.7
20260906082005 15 35 4.8 12.9 0.00 0.15 0.00 92 1018.7
20260906081514 15 49 4.8 11.3 0.00 0.15 0.00 92 1018.7
20260906081007 15 26 6.4 12.9 0.00 0.15 0.00 92 1018.7
20260906080511 15 28 4.8 12.9 0.00 0.15 0.00 92 1018.8
20260906080028 15 360 0.0 4.8 0.00 0.15 0.00 92 1018.9
20260906075510 15 5 1.6 6.4 0.00 0.15 0.00 92 1018.8
20260906075010 15 36 3.2 11.3 0.00 0.15 0.00 92 1018.8
20260906074528 15 31 3.2 11.3 0.00 0.15 0.00 92 1018.6
20260906074014 15 5 4.8 8.0 0.00 0.15 0.00 92 1018.7
20260906073512 15 32 3.2 6.4 0.00 0.15 0.00 92 1018.6
20260906073039 15 22 3.2 6.4 0.00 0.20 0.00 92 1018.5
20260906072512 15 9 0.0 4.8 0.00 0.20 0.00 91 1018.7
20260906072014 15 360 0.0 1.6 0.00 0.23 0.00 91 1018.8
20260906071511 15 360 0.0 3.2 0.00 0.23 0.00 92 1018.8
20260906071007 15 360 0.0 3.2 0.00 0.23 0.00 92 1018.8
20260906070509 15 360 0.0 3.2 0.00 0.23 0.00 91 1018.8
20260906070017 15 360 0.0 3.2 0.00 0.23 0.00 91 1018.6
20260906065512 15 360 1.6 3.2 0.00 0.23 0.00 91 1018.6
20260906065011 16 317 0.0 3.2 0.00 0.23 0.00 91 1018.6
20260906064523 16 317 0.0 1.6 0.00 0.23 0.00 91 1018.5
20260906064010 16 317 0.0 3.2 0.00 0.23 0.00 91 1018.6
20260906063513 16 317 0.0 3.2 0.00 0.23 0.00 91 1018.5
20260906063031 16 317 1.6 3.2 0.00 0.23 0.00 91 1018.5
20260906062513 16 317 1.6 3.2 0.00 0.23 0.00 91 1018.5
20260906062014 16 50 0.0 1.6 0.00 0.23 0.00 91 1018.4
20260906061532 16 50 0.0 1.6 0.00 0.23 0.00 91 1018.4
20260906061015 16 50 0.0 1.6 0.00 0.23 0.00 91 1018.4
20260906060517 16 50 0.0 1.6 0.00 0.23 0.00 90 1018.5
20260906060016 16 50 0.0 1.6 0.00 0.23 0.00 90 1018.5
20260906055509 16 50 0.0 1.6 0.00 0.23 0.00 90 1018.6
20260906055007 17 50 0.0 1.6 0.00 0.23 0.00 90 1018.5
20260906054523 17 50 0.0 1.6 0.00 0.23 0.00 90 1018.5
20260906054011 17 50 0.0 4.8 0.00 0.25 0.00 90 1018.4
20260906053510 17 50 0.0 4.8 0.00 0.28 0.00 90 1018.4
20260906053030 17 50 1.6 6.4 0.00 0.41 0.00 90 1018.2
20260906052514 17 50 3.2 9.7 0.00 0.48 0.00 90 1018.2
20260906052013 17 42 4.8 9.7 0.00 0.51 0.00 90 1018.2
20260906051531 17 55 4.8 11.3 0.00 0.51 0.00 90 1018.3
20260906051014 17 72 3.2 11.3 0.00 0.94 0.00 91 1018.3
20260906050515 17 45 4.8 14.5 0.00 1.22 0.00 91 1018.1
20260906050033 17 44 4.8 14.5 0.00 1.37 0.00 91 1018.1
20260906045514 17 66 8.0 16.1 0.00 1.40 0.00 92 1018.2
20260906045016 17 43 8.0 16.1 0.00 1.60 0.00 92 1018.2
20260906044516 17 45 8.0 16.1 0.00 1.70 0.00 92 1018.3
20260906044009 18 45 8.0 16.1 0.00 1.70 0.00 92 1018.3
20260906043512 18 45 8.0 14.5 0.00 1.70 0.00 92 1018.3
20260906043029 18 68 8.0 14.5 0.00 1.70 0.00 92 1018.3
20260906042514 18 23 8.0 14.5 0.00 1.70 0.00 93 1018.3
20260906042011 18 45 6.4 14.5 0.00 1.70 0.00 93 1018.2
20260906041532 18 15 6.4 12.9 0.00 1.70 0.00 93 1018.0
20260906041016 18 37 6.4 12.9 0.00 1.70 0.00 93 1018.0
20260906040518 18 50 6.4 9.7 0.00 1.70 0.00 93 1018.0
20260906040038 18 43 3.2 8.0 0.00 1.70 0.00 93 1017.9
20260906035514 18 54 3.2 6.4 0.00 1.70 1.70 93 1017.9
20260906035004 18 39 3.2 6.4 0.00 1.70 1.70 93 1017.9
20260906034506 18 20 1.6 4.8 0.00 1.70 1.70 93 1018.0
20260906034002 18 20 1.6 4.8 0.00 1.70 1.70 93 1018.0
20260906033502 18 33 3.2 6.4 0.00 1.70 1.70 93 1017.9
20260906033011 18 37 3.2 8.0 0.00 1.70 1.70 93 1017.8
20260906032502 18 42 4.8 8.0 0.00 1.70 1.70 93 1017.6
20260906032004 19 39 3.2 6.4 0.00 1.70 1.70 93 1017.6
20260906031505 19 24 3.2 6.4 0.00 1.70 1.70 92 1017.7
20260906031004 19 58 1.6 4.8 0.00 1.70 1.70 93 1017.6
20260906030504 19 49 3.2 4.8 0.00 1.70 1.70 93 1017.5
20260906030009 19 15 1.6 4.8 0.00 1.70 1.70 93 1017.6
20260906025503 19 22 1.6 4.8 0.00 1.70 1.70 93 1017.6
20260906025004 19 90 0.0 4.8 0.00 1.70 1.70 93 1017.6
20260906024514 19 90 1.6 4.8 0.00 1.70 1.70 93 1017.6
20260906024008 18 97 1.6 4.8 0.00 1.70 1.70 93 1017.6
20260906023503 18 42 0.0 1.6 0.00 1.70 1.70 92 1017.6
20260906023002 18 42 0.0 1.6 0.00 1.70 1.70 92 1017.6
20260906022503 18 42 0.0 1.6 0.00 1.70 1.70 92 1017.6
20260906022003 18 42 0.0 1.6 0.00 1.70 1.70 91 1017.4
20260906021504 19 42 0.0 0.0 0.00 1.70 1.70 92 1017.4
20260906021002 19 42 0.0 0.0 0.00 1.70 1.70 92 1017.3
20260906020505 19 42 0.0 0.0 0.00 1.70 1.70 92 1017.2
20260906020007 19 42 0.0 1.6 0.00 1.70 1.70 92 1017.2
20260906015502 19 42 0.0 1.6 0.00 1.70 1.70 92 1017.2
20260906015003 19 42 0.0 1.6 0.00 1.70 1.70 92 1017.1
20260906014525 19 42 0.0 1.6 0.00 1.70 1.70 92 1017.1
20260906014008 19 42 0.0 1.6 0.00 1.70 1.70 92 1017.0
20260906013506 19 42 0.0 3.2 0.00 1.70 1.70 92 1016.9
20260906013017 19 42 0.0 4.8 0.00 1.70 1.70 92 1016.9
20260906012510 19 42 1.6 4.8 0.00 1.70 1.70 92 1016.7
20260906012002 19 42 1.6 3.2 0.00 1.70 1.70 91 1016.8
20260906011503 19 42 1.6 3.2 0.00 1.70 1.70 92 1016.7
20260906011003 20 42 1.6 3.2 0.00 1.70 1.70 92 1016.7
20260906010503 20 42 0.0 3.2 0.00 1.70 1.70 92 1016.6
20260906010006 20 42 0.0 4.8 0.00 1.70 1.70 91 1016.6
20260906005503 20 42 1.6 4.8 0.00 1.70 1.70 91 1016.6
20260906005003 20 42 1.6 4.8 0.00 1.70 1.70 91 1016.5
20260906004517 20 42 3.2 4.8 0.00 1.70 1.70 92 1016.6
20260906004004 20 42 1.6 3.2 0.00 1.70 1.70 92 1016.6
20260906003507 20 42 0.0 0.0 0.00 1.70 1.70 91 1016.7
20260906003015 20 42 0.0 0.0 0.00 1.70 1.70 91 1016.6
20260906002505 20 42 0.0 0.0 0.00 1.70 1.70 91 1016.6
20260906002010 20 42 0.0 3.2 0.00 1.70 1.70 91 1016.5
20260906001526 20 42 0.0 3.2 0.00 1.70 1.70 91 1016.5
20260906001012 20 42 0.0 0.0 0.00 1.70 1.70 91 1016.4
20260906000505 20 42 0.0 0.0 0.00 1.70 1.70 91 1016.4
20260906000004 20 42 0.0 1.6 0.00 1.70 1.70 91 1016.4
20260905235502 20 42 0.0 1.6 0.00 1.70 1.70 91 1016.5
20260905235004 20 42 0.0 3.2 0.00 1.70 1.70 91 1016.5
20260905234507 20 42 0.0 3.2 0.00 1.70 1.70 91 1016.5
20260905234003 20 42 1.6 4.8 0.00 1.70 1.70 91 1016.4
20260905233503 20 42 1.6 4.8 0.00 1.70 1.70 91 1016.4
20260905233014 20 42 1.6 4.8 0.03 1.70 1.70 91 1016.5
20260905232506 20 42 1.6 4.8 0.05 1.70 1.70 91 1016.4
20260905232009 20 42 1.6 3.2 0.08 1.70 1.70 91 1016.4
20260905231518 20 42 0.0 3.2 0.10 1.70 1.70 91 1016.5
20260905231010 20 42 0.0 3.2 0.10 1.70 1.70 91 1016.4
20260905230509 20 42 0.0 3.2 0.13 1.70 1.70 91 1016.3
20260905230031 20 42 0.0 3.2 0.13 1.70 1.70 91 1016.3
20260905225514 20 34 0.0 3.2 0.13 1.70 1.70 91 1016.4
20260905225005 20 355 0.0 6.4 0.13 1.70 1.70 91 1016.4
20260905224507 20 32 1.6 6.4 0.13 1.70 1.70 91 1016.3
20260905224003 20 23 3.2 8.0 0.13 1.70 1.70 90 1016.3
20260905223504 20 32 3.2 8.0 0.13 1.70 1.70 90 1016.3
20260905223012 20 26 6.4 8.0 0.10 1.68 1.68 90 1016.4
20260905222505 20 30 4.8 8.0 0.08 1.65 1.65 90 1016.4
20260905222007 20 9 3.2 6.4 0.05 1.63 1.63 90 1016.4
20260905221519 20 9 3.2 8.0 0.03 1.60 1.60 90 1016.2
20260905221008 20 30 4.8 8.0 0.03 1.60 1.60 89 1016.2
20260905220510 20 16 1.6 9.7 0.00 1.57 1.57 89 1016.1
20260905220025 20 5 1.6 11.3 0.00 1.57 1.57 89 1016.2
20260905215510 20 25 6.4 14.5 0.00 1.57 1.57 88 1016.2
20260905215014 20 51 6.4 14.5 0.00 1.57 1.57 88 1016.1
20260905214530 20 66 9.7 14.5 0.00 1.57 1.57 88 1016.1
20260905214003 20 23 6.4 17.7 0.00 1.57 1.57 87 1016.0
20260905213503 21 58 11.3 22.5 0.00 1.57 1.57 87 1016.0
20260905213013 21 52 14.5 22.5 0.00 1.57 1.57 87 1015.9
20260905212506 21 72 9.7 22.5 0.00 1.57 1.57 87 1015.8
20260905212003 21 51 9.7 17.7 0.00 1.57 1.57 88 1015.7
20260905211514 21 51 8.0 19.3 0.00 1.57 1.57 87 1015.8
20260905211008 21 37 12.9 19.3 0.00 1.57 1.57 87 1015.9
20260905210508 21 12 9.7 19.3 0.00 1.57 1.57 88 1015.8
20260905210021 21 35 9.7 20.9 0.00 1.57 1.57 88 1015.8
20260905205512 21 24 11.3 20.9 0.00 1.57 1.57 87 1015.8
20260905205013 21 49 11.3 20.9 0.00 1.57 1.57 87 1015.8
20260905204527 22 46 14.5 20.9 0.00 1.57 1.57 87 1015.8
20260905204014 22 46 9.7 20.9 0.00 1.57 1.57 87 1015.7
20260905203514 22 55 11.3 19.3 0.00 1.57 1.57 86 1015.8
20260905203034 22 19 14.5 19.3 0.00 1.57 1.57 86 1015.7
20260905202503 22 15 11.3 16.1 0.00 1.57 1.57 85 1015.7
20260905202003 22 66 4.8 16.1 0.00 1.57 1.57 85 1015.8
20260905201514 22 59 8.0 20.9 0.00 1.57 1.57 85 1015.8
20260905201005 22 49 9.7 20.9 0.00 1.57 1.57 85 1015.8
20260905200507 22 83 11.3 19.3 0.00 1.57 1.57 85 1015.8
20260905200019 22 71 9.7 19.3 0.00 1.57 1.57 85 1015.8
20260905195510 22 69 12.9 19.3 0.00 1.57 1.57 85 1015.9
20260905195010 23 62 11.3 17.7 0.00 1.57 1.57 85 1015.8
20260905194524 23 74 9.7 17.7 0.00 1.57 1.57 85 1015.8
20260905194011 23 96 8.0 16.1 0.00 1.57 1.57 85 1015.8
20260905193514 23 57 8.0 16.1 0.00 1.57 1.57 85 1015.8
20260905193029 23 46 8.0 14.5 0.00 1.57 1.57 85 1015.9
20260905192518 23 41 8.0 14.5 0.00 1.57 1.57 86 1015.9
20260905192017 23 47 6.4 14.5 0.00 1.57 1.57 86 1015.8
20260905191531 23 67 3.2 12.9 0.00 1.57 1.57 86 1015.9
20260905191006 23 38 8.0 12.9 0.00 1.57 1.57 86 1015.9
20260905190504 23 50 4.8 11.3 0.00 1.57 1.57 86 1015.9
20260905190017 23 28 6.4 11.3 0.00 1.57 1.57 86 1015.9
20260905185510 23 61 8.0 14.5 0.00 1.57 1.57 85 1015.8
20260905185004 23 52 8.0 14.5 0.00 1.57 1.57 85 1015.9
20260905184504 23 59 8.0 12.9 0.00 1.57 1.57 85 1015.9
20260905184003 23 41 6.4 12.9 0.00 1.57 1.57 86 1016.0
20260905183503 23 36 6.4 11.3 0.00 1.57 1.57 85 1016.0
20260905183005 23 69 4.8 11.3 0.00 1.57 1.57 85 1016.1
20260905182503 23 63 4.8 8.0 0.00 1.57 1.57 84 1016.1
20260905182002 23 67 1.6 9.7 0.00 1.57 1.57 85 1016.0
20260905181509 23 42 3.2 12.9 0.00 1.57 1.57 84 1016.0
20260905181003 23 67 6.4 12.9 0.00 1.57 1.57 84 1016.1
20260905180507 23 44 4.8 12.9 0.00 1.57 1.57 85 1016.0
20260905180015 23 84 8.0 12.9 0.00 1.57 1.57 84 1016.0
20260905175507 23 88 4.8 12.9 0.00 1.57 1.57 84 1015.9
20260905175007 23 41 6.4 12.9 0.00 1.57 1.57 83 1016.0
20260905174505 23 92 6.4 12.9 0.00 1.57 1.57 83 1015.9
20260905174002 23 93 6.4 12.9 0.00 1.60 1.57 83 1016.0
20260905173503 23 42 6.4 11.3 0.00 1.60 1.57 83 1016.0
20260905173003 23 64 3.2 11.3 0.00 1.60 1.57 84 1016.0
20260905172504 23 113 4.8 11.3 0.00 1.60 1.57 84 1016.0
20260905172007 23 125 6.4 11.3 0.00 1.60 1.57 84 1016.1
20260905171518 23 65 6.4 11.3 0.00 1.60 1.57 84 1016.0
20260905171009 23 78 3.2 8.0 0.00 1.60 1.57 86 1016.0
20260905170504 23 111 4.8 9.7 0.00 1.60 1.57 85 1016.1
20260905170013 23 110 3.2 9.7 0.00 1.60 1.57 86 1016.0
20260905165511 23 71 3.2 12.9 0.00 1.60 1.57 86 1016.1
20260905165006 23 78 4.8 12.9 0.00 1.60 1.57 85 1016.4
20260905164518 23 74 8.0 12.9 0.00 1.60 1.57 85 1016.1
20260905164009 23 74 3.2 11.3 0.00 1.60 1.57 87 1016.1
20260905163510 22 76 1.6 14.5 0.00 1.60 1.57 86 1016.2
20260905163003 22 117 4.8 14.5 0.00 1.60 1.57 86 1016.2
20260905162503 22 115 6.4 12.9 0.00 1.60 1.57 86 1016.2
20260905162002 22 66 4.8 12.9 0.00 1.60 1.57 85 1016.2
20260905161503 22 89 8.0 14.5 0.00 1.60 1.57 86 1016.1
20260905161003 22 65 6.4 14.5 0.00 1.60 1.57 85 1016.2
20260905160503 22 65 6.4 14.5 0.00 1.60 1.57 86 1016.2
20260905160030 22 89 4.8 12.9 0.00 1.68 1.57 86 1016.2
20260905155507 22 117 6.4 12.9 0.00 1.88 1.57 85 1016.2
20260905155006 22 136 3.2 11.3 0.00 2.03 1.57 86 1016.2
20260905154516 22 170 1.6 11.3 0.00 2.03 1.57 86 1016.2
20260905154008 22 66 4.8 11.3 0.00 2.03 1.57 85 1016.2
20260905153510 22 125 6.4 16.1 0.00 2.03 1.57 86 1016.2
20260905153022 22 151 4.8 16.1 0.00 2.03 1.57 87 1016.1
20260905152512 22 178 3.2 9.7 0.00 2.03 1.57 89 1016.0
20260905152014 22 163 4.8 9.7 0.00 2.06 1.57 89 1016.2
20260905151504 21 140 3.2 8.0 0.00 2.16 1.57 90 1016.2
20260905151003 21 119 3.2 8.0 0.00 2.18 1.57 90 1016.2
20260905150503 21 110 3.2 6.4 0.00 2.21 1.57 89 1016.3
20260905150010 21 119 3.2 9.7 0.00 2.26 1.57 90 1016.3
20260905145502 21 139 3.2 11.3 0.00 2.29 1.57 90 1016.2
20260905145004 21 100 6.4 11.3 0.00 2.31 1.57 90 1016.1
20260905144514 21 110 4.8 9.7 0.00 2.34 1.57 91 1016.0
20260905144009 21 95 3.2 11.3 0.00 2.51 1.57 91 1016.0
20260905143507 21 101 3.2 11.3 0.00 2.51 1.57 91 1016.0
20260905143018 21 108 4.8 9.7 0.00 2.59 1.57 91 1015.9
20260905142512 20 91 4.8 9.7 0.00 2.62 1.57 91 1015.9
20260905142011 20 106 3.2 9.7 0.00 2.62 1.57 91 1015.8
20260905141527 20 129 4.8 9.7 0.00 2.62 1.57 91 1015.8
20260905141015 20 127 4.8 11.3 0.00 2.62 1.57 92 1015.8
20260905140506 20 143 6.4 12.9 0.00 2.62 1.57 92 1015.8
20260905140005 20 110 8.0 12.9 0.00 2.62 1.57 92 1015.7
20260905135504 20 130 4.8 12.9 0.00 2.62 1.57 93 1015.6
20260905135004 20 132 4.8 14.5 0.00 2.62 1.57 93 1015.6
20260905134511 20 112 6.4 14.5 0.00 2.62 1.57 93 1015.5
20260905134004 20 132 6.4 12.9 0.00 2.62 1.57 93 1015.5
20260905133511 20 132 4.8 14.5 0.00 2.62 1.57 94 1015.5
20260905133014 20 128 6.4 14.5 0.00 2.62 1.57 94 1015.5
20260905132507 20 92 6.4 16.1 0.00 2.62 1.57 93 1015.5
20260905132017 20 124 6.4 16.1 0.00 2.62 1.57 93 1015.5
20260905131535 20 98 6.4 12.9 0.00 2.62 1.57 93 1015.6
20260905131016 20 90 6.4 11.3 0.00 2.62 1.57 93 1015.6
20260905130509 20 113 4.8 12.9 0.00 2.62 1.57 93 1015.6
20260905130030 20 86 6.4 14.5 0.00 2.62 1.57 93 1015.5
20260905125520 20 68 4.8 14.5 0.00 2.62 1.57 93 1015.5
20260905125003 20 117 9.7 14.5 0.00 2.62 1.57 93 1015.4
20260905124509 20 69 4.8 16.1 0.00 2.62 1.57 93 1015.4
20260905124003 20 69 6.4 16.1 0.00 2.62 1.57 93 1015.4
20260905123504 20 34 9.7 16.1 0.00 2.62 1.57 93 1015.4
20260905123017 20 44 8.0 16.1 0.00 2.62 1.57 93 1015.4
20260905122511 20 44 4.8 8.0 0.00 2.62 1.57 94 1015.3
20260905122009 20 45 3.2 8.0 0.00 2.62 1.57 94 1015.3
20260905121521 20 38 4.8 11.3 0.00 2.62 1.57 94 1015.2
20260905121013 20 69 4.8 11.3 0.00 2.62 1.57 94 1015.2
20260905120512 20 84 3.2 11.3 0.00 2.62 1.57 94 1015.1
20260905120028 20 76 3.2 8.0 0.00 2.62 1.57 93 1015.0
20260905115513 20 88 4.8 11.3 0.00 2.62 1.57 93 1014.9
20260905115014 20 88 3.2 11.3 0.00 2.62 1.57 93 1014.9
20260905114538 20 59 6.4 12.9 0.00 2.62 1.57 93 1014.8
20260905114015 20 63 8.0 14.5 0.00 2.62 1.57 93 1014.7